Annapolis Naval Academy, MD

10:22 PM EDT on July 21, 2017 (GMT -0400)
Annapolis Naval Academy

Weather History for KNAK - October, 2012

Change the Weather History Date:

Wednesday, October 10, 2012

  Actual Average (KBWI) Record (KBWI)
Temperature  
Mean Temperature 64 °F -  
Max Temperature 71 °F 67 °F 93 °F (1939)
Min Temperature 57 °F 48 °F 34 °F (1979)
Degree Days  
Heating Degree Days 2    
Growing Degree Days 14 (Base 50)    
Moisture  
Dew Point 53 °F    
Average Humidity 75    
Maximum Humidity 93    
Minimum Humidity 42    
Precipitation  
Precipitation 0.01 in - - ()
Sea Level Pressure  
Sea Level Pressure 29.99 in    
Wind  
Wind Speed 5 mph (WNW)    
Max Wind Speed 18 mph    
Max Gust Speed 28 mph    
Visibility 6 miles    
Events Rain    
Averages and records for this station are not official NWS values.
T = Trace of Precipitation, MM = Missing Value Source: NWS Daily Summary

Daily Weather History Graph

Daily Weather History Graph

Search for Another Location

Airport or City:

Trip Planner

Search our weather history database for the weather conditions in past years. The results will help you decide how hot, cold, wet, or windy it might be!

Date:

Astronomy

Oct. 10, 2012 Rise Set
Actual Time 7:10 AM EDT 6:33 PM EDT
Civil Twilight 6:44 AM EDT 7:00 PM EDT
Nautical Twilight 6:13 AM EDT 7:31 PM EDT
Astronomical Twilight 5:42 AM EDT 8:02 PM EDT
Moon 1:47 AM EDT (10/10) 3:33 PM EDT (10/10)
Length of Visible Light 12h 16m
Length of Day
11h 23m
Waning Crescent, 27% of the Moon is Illuminated
Oct 10
Waning Crescent
Oct 15
New
Oct 21
First Quarter
Oct 29
Full
Nov 6
Last Quarter

Hourly Weather History & Observations

Time (EDT) Temp. Dew Point Humidity Pressure Visibility Wind Dir Wind Speed Gust Speed Precip Events Conditions
12:54 AM 59.0 °F 55.9 °F 90% 30.05 in 3.0 mi NNW 5.8 mph - 0.00 in   Overcast
1:54 AM 59.0 °F 55.9 °F 90% 30.04 in 3.0 mi NNW 4.6 mph - N/A   Overcast
2:49 AM 59.0 °F 55.4 °F 88% 30.02 in 2.5 mi NNW 4.6 mph - N/A   Overcast
2:54 AM 59.0 °F 55.9 °F 90% 30.03 in 2.5 mi NNW 4.6 mph - N/A   Overcast
3:29 AM 59.0 °F 57.0 °F 93% 30.01 in 3.0 mi NNW 3.5 mph - N/A   Overcast
3:50 AM 59.0 °F 55.4 °F 88% 29.99 in 2.5 mi NNE 5.8 mph - N/A   Overcast
3:54 AM 59.0 °F 57.0 °F 93% 30.00 in 2.5 mi North 4.6 mph - N/A   Overcast
4:17 AM 59.0 °F 55.9 °F 90% 29.99 in 3.0 mi NNW 3.5 mph - N/A   Overcast
4:54 AM 59.0 °F 57.0 °F 93% 30.00 in 2.0 mi West 3.5 mph - N/A   Overcast
5:02 AM 57.9 °F 55.9 °F 93% 29.99 in 1.5 mi Calm Calm - N/A   Overcast
5:54 AM 57.9 °F 55.9 °F 93% 30.00 in 2.5 mi Calm Calm - 0.00 in   Overcast
6:07 AM 57.9 °F 55.9 °F 93% 29.99 in 2.5 mi Calm Calm - N/A   Overcast
6:24 AM 57.9 °F 55.9 °F 93% 29.99 in 3.0 mi West 3.5 mph - 0.01 in   Overcast
6:36 AM 57.9 °F 55.9 °F 93% 29.99 in 2.5 mi West 3.5 mph - 0.01 in Rain Light Rain
6:42 AM 57.9 °F 55.9 °F 93% 29.99 in 3.0 mi West 4.6 mph - 0.01 in Rain Light Rain
6:54 AM 57.9 °F 55.9 °F 93% 30.00 in 4.0 mi Calm Calm - 0.01 in   Overcast
7:54 AM 57.9 °F 55.9 °F 93% 30.00 in 3.0 mi Variable 3.5 mph - N/A   Overcast
8:35 AM 59.0 °F 55.9 °F 90% 30.00 in 3.0 mi West 3.5 mph - N/A   Overcast
8:51 AM 59.0 °F 55.4 °F 88% 29.99 in 3.0 mi Variable 3.5 mph - N/A   Overcast
8:54 AM 60.1 °F 55.9 °F 86% 30.00 in 3.0 mi Calm Calm - N/A   Overcast
9:02 AM 60.1 °F 55.9 °F 86% 29.99 in 3.0 mi West 6.9 mph - N/A   Overcast
9:54 AM 62.1 °F 55.9 °F 80% 29.99 in 5.0 mi Variable 4.6 mph - N/A   Haze
10:54 AM 64.9 °F 52.0 °F 63% 29.98 in 10.0 mi WSW 8.1 mph - N/A   Partly Cloudy
11:54 AM 64.9 °F 48.9 °F 56% 29.97 in 10.0 mi WNW 6.9 mph - N/A   Mostly Cloudy
12:54 PM 64.9 °F 48.9 °F 56% 29.96 in 10.0 mi West 10.4 mph - N/A   Mostly Cloudy
1:54 PM 66.9 °F 48.9 °F 52% 29.92 in 10.0 mi NW 8.1 mph - N/A   Scattered Clouds
2:54 PM 68.0 °F 46.0 °F 45% 29.91 in 10.0 mi WNW 9.2 mph - N/A   Clear
3:54 PM 70.0 °F 46.0 °F 42% 29.88 in 10.0 mi Variable 3.5 mph - N/A   Scattered Clouds
4:54 PM 70.0 °F 46.9 °F 44% 29.88 in 10.0 mi WNW 4.6 mph - N/A   Partly Cloudy
5:54 PM 68.0 °F 48.0 °F 49% 29.89 in 10.0 mi Calm Calm - N/A   Overcast
6:54 PM 66.0 °F 48.9 °F 54% 29.91 in 10.0 mi SSW 3.5 mph - N/A   Overcast
7:54 PM 66.0 °F 48.9 °F 54% 29.94 in 10.0 mi WSW 5.8 mph - N/A   Overcast
8:54 PM 64.9 °F 48.0 °F 54% 29.99 in 10.0 mi NW 18.4 mph 27.6 mph N/A   Overcast
9:54 PM 62.1 °F 42.1 °F 48% 30.03 in 10.0 mi NW 12.7 mph - N/A   Clear
10:54 PM 60.1 °F 43.0 °F 53% 30.06 in 10.0 mi NW 13.8 mph 20.7 mph N/A   Clear
11:54 PM 57.9 °F 43.0 °F 58% 30.09 in 10.0 mi WNW 9.2 mph - N/A   Clear